Regional Weather Roundup
Issued by NWS

Home | Current Version | Previous Version | Graphics & Text | Print | Product List | Glossary Off
Versions: 1 2 3 4 5 6 7 8 9 10 11 12 13 14 15 16 17 18 19 20 21 22 23 24 25 26 27 28 29 30 31 32 33 34 35 36 37 38 39 40 41 42 43 44 45 46 47 48 49 50

000
ASUS43 KMPX 192001
RWRMN
WEATHER ROUNDUP FOR MINNESOTA
NATIONAL WEATHER SERVICE TWIN CITIES/CHANHASSEN MN
200 PM CST FRI JAN 19 2018


NOTE: "FAIR" INDICATES FEW OR NO CLOUDS BELOW 12,000 FEET WITH NO
SIGNIFICANT WEATHER AND/OR OBSTRUCTIONS TO VISIBILITY. N/A MEANS
CURRENT SKY AND/OR WEATHER CONDITIONS ARE NOT AVAILABLE.

MNZ060>063-068>070-192100-
   Twin Cities Metro

CITY           SKY/WX    TMP DP  RH WIND       PRES   REMARKS
TWIN CITIES    PTSUNNY   41  29  62 SW13      29.49S
ST PAUL        FAIR      41  28  60 SW9       29.49S
CRYSTAL        FAIR      40  26  57 S10       29.47F
BLAINE         PTSUNNY   43  28  56 SW9       29.47R
LAKEVILLE      FAIR      39  28  65 SW8       29.48F
EDEN PRAIRIE   FAIR      41  28  60 SW10      29.48S
SOUTH ST PAUL  FAIR      43  28  56 SW9       29.49S
LAKE ELMO      FAIR      41  30  65 SW9       29.49R
$$
MNZ001>005-007-008-013>017-022>024-027-028-192100-
   Northwest Minnesota

CITY           SKY/WX    TMP DP  RH WIND       PRES   REMARKS
BEMIDJI        FAIR      41  29  62 W12       29.43F
HALLOCK        FAIR      37  34  87 W8        29.44R
ROSEAU         FAIR      41  34  75 W14G21    29.38F
WARROAD        FAIR      39  34  81 W16G22    29.36F
CROOKSTON      FAIR      37  32  81 W10       29.48S
FOSSTON        FAIR      36  28  75 SW7       29.45F
DETROIT LAKES  FAIR      41  30  65 NW12      29.48S
MOORHEAD       FAIR      37  32  81 CALM      29.52R
PARK RAPIDS    FAIR      41  30  65 NW14      29.44R
MAHNOMEN       FAIR      34  31  87 SW5       29.47S WCI  30
$$
MNZ006-009>011-018-025>026-192100-
   North Central Minnesota

CITY           SKY/WX    TMP DP  RH WIND       PRES   REMARKS
BAUDETTE       FAIR      41  31  67 W12       29.33S
FLAG ISLAND    FAIR      41  30  65 W20G33    29.32R
INTL FALLS     CLOUDY    42  30  62 W10       29.33S
WASKISH        FAIR      41  30  65 W15G23    29.39S
BIG FORK       FAIR      43  28  56 W5        29.40R
LONGVILLE      FAIR      43  28  56 W5        29.42S
GRAND RAPIDS   PTSUNNY   42  28  57 W5        29.42F
CRANE LAKE     DRIZZLE   37  30  75 SW6       29.36S
ORR            PTSUNNY   39  27  60 W6        29.34S
COOK           CLOUDY    37  28  70 SW6       29.35F
WALKER         FAIR      45  27  49 W12       29.44R
$$
MNZ012-019>021-037-192100-
   Northeast Minnesota

CITY           SKY/WX    TMP DP  RH WIND       PRES   REMARKS
DULUTH         FAIR      38  28  67 W9        29.38F
ELY            FAIR      37  28  70 SW6       29.35F
HIBBING        PTSUNNY   39  28  64 SW6       29.38F
EVELETH        FAIR      37  27  65 W6        29.39F
DULUTH HARBOR  FAIR      37  30  75 SW7       29.42F
TWO HARBORS    FAIR      43  30  61 W5        29.36F
SILVER BAY     FAIR      43  30  61 W3        29.35F
GRAND MARAIS     N/A     39  31  72 MISG      29.36F
G MARAIS ARPRT FAIR      34  25  69 SW5       29.34S WCI  30
$$
MNZ029>031-032-039>041-046>048-054>057-064-192100-
   West Central Minnesota

CITY           SKY/WX    TMP DP  RH WIND       PRES   REMARKS
FERGUS FALLS   FAIR      36  30  80 W7        29.49S
WHEATON        CLOUDY    45  28  53 NW9       29.52F
MORRIS         CLOUDY    45  32  61 NW17      29.49R
ALEXANDRIA     FAIR      42  30  62 NW12      29.48S
ELBOW LAKE     FAIR      37  32  81 NW5       29.49F
WADENA         FAIR      43  28  56 NW6       29.45F
GLENWOOD       FAIR      43  30  61 NW9       29.48F
APPLETON       MOSUNNY   46  32  57 NW13      29.50R
BENSON         CLOUDY    46  30  53 N14       29.50S
ORTONVILLE     MOSUNNY   46  30  53 NW10      29.50R
MADISON        CLOUDY    48  34  57 NW14      29.50R
WILLMAR        FAIR      45  32  61 NW13      29.49F
$$
MNZ033>034-036-042>043-049>051-058-059-192100-
   Central Minnesota

CITY           SKY/WX    TMP DP  RH WIND       PRES   REMARKS
ST CLOUD       FAIR      41  30  65 W8        29.46S
SAUK CENTRE      N/A     43  30  61 NW8       29.47S
PAYNESVILLE    FAIR      45  32  61 W7        29.47F
AITKIN         FAIR      41  27  56 SW6       29.41F
PINE RIVER     FAIR      45  27  49 CALM      29.47S
BRAINERD       FAIR      41  29  62 W6        29.43F
STAPLES        FAIR      39  28  65 W6        29.44S
LONG PRAIRIE   FAIR      41  30  65 SW6       29.46S
LITTLE FALLS   FAIR      43  21  42 W5        29.46R
LITCHFIELD     FAIR      45  34  65 W8        29.49R
BUFFALO        FAIR      40  30  68 SW7       29.50R
MAPLE LAKE     FAIR      43  32  67 MISG      29.49R
HUTCHINSON     FAIR      46  35  67 W14       29.49R
$$
MNZ037-044-045-052-053-192100-
   East Central Minnesota

CITY           SKY/WX    TMP DP  RH WIND       PRES   REMARKS
PRINCETON      FAIR      43  28  56 SW6       29.46F
MORA           FAIR      39  27  60 SW5       29.47S
CAMBRIDGE      FAIR      43  28  56 SW8       29.46F
RUSH CITY      FAIR      41  27  57 SW7       29.46S
MOOSE LAKE     FAIR      37  28  70 S5        29.41F
HINCKLEY       FAIR      37  30  75 S3        29.45F
CLOQUET        FAIR      37  25  60 SW5       29.39F
MCGREGOR       FAIR      43  28  56 W5        29.42F
$$
MNZ071>073-080-081-089-090-097-098-192100-
   Southwest Minnesota

CITY           SKY/WX    TMP DP  RH WIND       PRES   REMARKS
MONTEVIDEO     MOSUNNY   48  32  53 N5        29.49R
GRANITE FALLS  SUNNY     50  37  59 W13       29.51S
CANBY          PTSUNNY   51  31  45 W12       29.52R
MARSHALL       CLOUDY    49  33  54 W13       29.49F
REDWOOD FALLS  CLOUDY    46  33  60 W14       29.49S
OLIVIA         CLOUDY    46  32  57 NW14      29.48S
PIPESTONE      CLOUDY    39  34  81 W7        29.51F
WINDOM         CLOUDY    46  27  46 W13       29.52R
WORTHINGTON    CLOUDY    46  33  60 SW15      29.52S
JACKSON        CLOUDY    46  32  57 SW10G17   29.51S
TRACY          CLOUDY    45  34  65 MISG      29.49F
SLAYTON        CLOUDY    41  33  72 W20       29.51R
$$
MNZ065>067-074>077-082>085-091>093-192100-
   South Central Minnesota

CITY           SKY/WX    TMP DP  RH WIND       PRES   REMARKS
MANKATO        FAIR      42  31  64 SW15      29.50S
NEW ULM        MOSUNNY   46  34  61 W12       29.49F
ST JAMES       CLOUDY    48  34  57 SW10      29.53R
FAIRMONT       CLOUDY    47  33  58 SW13      29.52R
FARIBAULT      FAIR      39  28  65 S13       29.50F
OWATONNA       FAIR      39  30  70 SW14      29.51F
WASECA         FAIR      36  30  80 SW13      29.52F
ALBERT LEA     FAIR      43  27  52 S15G21    29.51F
$$
MNZ078>079-086>088-094>096-192100-
   Southeast Minnesota

CITY           SKY/WX    TMP DP  RH WIND       PRES   REMARKS
ROCHESTER      FAIR      37  29  72 S28G36    29.49F
RED WING       FAIR      41  25  52 SW13      29.49F
STANTON        FAIR      40  30  68 SW16      29.47F
DODGE CENTER   FAIR      37  28  70 SW14      29.51R
WINONA         FAIR      41  27  56 SW6       29.51F
PRESTON        FAIR      37  28  70 S22       29.53F
$$
ABBREVIATIONS USED IN REMARKS
   TC - TEMPERATURES IN CELSIUS
  WCI - WIND CHILL INDEX
   HX - HEAT INDEX
  VSB - VISIBILITY
$$




USA.gov is the U.S. government's official web portal to all federal, state and local government web resources and services.